Home   Weather   50°00'N, 8°39'E   Past weeks
Flag for Germany

Past Weather in 50°00'N, 8°39'E, Germany — Yesterday and Last 2 Weeks

Now
57 °F

Light rain. Passing clouds.


Feels Like: 55 °F
Forecast: 66 / 54 °F
Wind: 9 mph from South

Location: Frankfurt-M-Flughafen Airport

Current Time: Oct 20, 2019 at 12:31:04 am

Latest Report: Oct 19, 2019 at 11:50 pm


Visibility: N/A

Pressure: 29.80 "Hg

Humidity: 88%

Dew Point: 54 °F

Location of 50°00'N, 8°39'ELocation

Past Weather in 50°00'N, 8°39'E — Graph

°F

50°00'N, 8°39'E Temperature Yesterday

Maximum temperature yesterday: 61 °F (at 1:50 pm)
Minimum temperature yesterday: 46 °F (at 1:20 am)
Average temperature yesterday: 54 °F

High & Low Weather Summary for the Past Weeks

 TemperatureHumidityPressure
High77 °F (Oct 13, 2:50 pm)100% (Oct 6, 1:20 pm)30.12 "Hg (Oct 6, 1:20 pm)
Low45 °F (Oct 5, 11:50 pm)47% (Oct 14, 3:20 pm)29.71 "Hg (Oct 5, 12:50 am)
Average55 °F85%29.91 "Hg
* Reported Oct 4 11:50 pm — Oct 19 11:20 pm, 50°00'N, 8°39'E. Weather by CustomWeather, © 2019

Note: Actual official high and low records may vary slightly from our data, if they occured in-between our weather recording intervals... More about our weather records

Advertising

50°00'N, 8°39'E Weather History for the Previous 24 Hours

Scroll right to see more
 ConditionsComfort  
Time TempWeatherWind HumidityBarometerVisibility
11:20 pm
Sat, Oct 19
57 °FPassing clouds.10 mph88%29.77 "HgN/A
10:20 pm59 °FLight rain. Passing clouds.12 mph82%29.77 "HgN/A
9:50 pm59 °FPassing clouds.10 mph82%29.77 "HgN/A
9:20 pm59 °FLight rain. Passing clouds.10 mph82%29.77 "HgN/A
8:50 pm59 °FPassing clouds.13 mph82%29.77 "HgN/A
8:20 pm59 °FPassing clouds.10 mph82%29.74 "HgN/A
7:50 pm59 °FPassing clouds.8 mph82%29.74 "HgN/A
7:20 pm57 °FPassing clouds.6 mph88%29.74 "HgN/A
6:50 pm57 °FPassing clouds.5 mph82%29.74 "HgN/A
6:20 pm59 °FScattered clouds.6 mph82%29.74 "HgN/A
5:50 pm59 °FPassing clouds.6 mph82%29.74 "HgN/A
5:20 pm59 °FPassing clouds.8 mph82%29.74 "HgN/A
4:50 pm59 °FPassing clouds.9 mph82%29.74 "HgN/A
4:20 pm61 °FPassing clouds.9 mph77%29.74 "HgN/A
3:50 pm59 °FPassing clouds.10 mph82%29.74 "HgN/A
3:20 pm59 °FLight rain. Passing clouds.12 mph82%29.74 "HgN/A
2:50 pm59 °FLight rain. Passing clouds.12 mph82%29.74 "HgN/A
2:20 pm61 °FPassing clouds.10 mph77%29.77 "HgN/A
1:50 pm61 °FPassing clouds.12 mph77%29.77 "HgN/A
1:20 pm59 °FPassing clouds.9 mph82%29.77 "HgN/A
12:50 pm59 °FScattered clouds.9 mph82%29.77 "HgN/A
12:20 pm59 °FPartly sunny.10 mph82%29.80 "HgN/A
11:50 am57 °FLight rain. Partly sunny.9 mph82%29.80 "HgN/A
11:20 am57 °FPartly sunny.8 mph82%29.80 "HgN/A
10:50 am57 °FPartly sunny.5 mph88%29.80 "HgN/A
10:20 am55 °FScattered clouds.3 mph94%29.80 "HgN/A
9:50 am55 °FPassing clouds.3 mph88%29.80 "HgN/A
9:20 am52 °FPassing clouds.2 mph100%29.80 "HgN/A
8:50 am52 °FPassing clouds.3 mph94%29.80 "HgN/A
8:20 am50 °FScattered clouds.3 mph94%29.80 "HgN/A
7:50 am50 °FPassing clouds.1 mph94%29.80 "HgN/A
7:20 am50 °FPassing clouds.2 mph94%29.80 "HgN/A
6:50 am50 °FPassing clouds.2 mph94%29.80 "HgN/A
6:20 am50 °FPassing clouds.2 mph94%29.80 "HgN/A
5:50 am50 °FPassing clouds.3 mph94%29.80 "HgN/A
5:20 am48 °FPassing clouds.2 mph100%29.83 "HgN/A
4:50 am48 °FPassing clouds.2 mph100%29.83 "HgN/A
4:20 am48 °FPassing clouds.3 mph100%29.83 "HgN/A
3:50 am48 °FPassing clouds.2 mph94%29.83 "HgN/A
3:20 am48 °FPassing clouds.2 mph94%29.86 "HgN/A
2:50 am46 °FPassing clouds.2 mph100%29.86 "HgN/A
2:20 am46 °FClear.1 mph100%29.86 "Hg10 mi
1:50 am46 °FClear.2 mph100%29.86 "Hg10 mi
1:20 am46 °FClear.1 mph100%29.86 "Hg10 mi
12:50 am48 °FClear.1 mph94%29.86 "Hg10 mi
12:20 am48 °FClear.2 mph94%29.86 "Hg10 mi
Weather by CustomWeather, © 2019

See weather overview